Sacramento, CA

2:32 PM PST on December 07, 2016 (GMT -0800)
Sacramento Executive

Weather History for KSAC - October, 2013

Change the Weather History Date:

Sunday, October 20, 2013

  Actual Average Record
Temperature  
Mean Temperature 65 °F -  
Max Temperature 84 °F 76 °F 94 °F (1991)
Min Temperature 45 °F 49 °F 35 °F (1949)
Degree Days  
Heating Degree Days 0    
Cooling Degree Days 0    
Growing Degree Days 14 (Base 50)    
Moisture  
Dew Point 41 °F    
Average Humidity 52    
Maximum Humidity 86    
Minimum Humidity 17    
Precipitation  
Precipitation 0.00 in 0.04 in 0.37 in (2004)
Month to date precipitation 0.00 0.48  
Year to date precipitation 4.50 12.72  
Since 1 July precipitation 0.59  
Sea Level Pressure  
Sea Level Pressure 29.95 in    
Wind  
Wind Speed 1 mph (SW)    
Max Wind Speed 7 mph    
Max Gust Speed 14 mph    
Visibility 10 miles    
Events      
T = Trace of Precipitation, MM = Missing Value Source: NWS Daily Summary

Daily Weather History Graph

Daily Weather History Graph

Search for Another Location

Airport or City:

Trip Planner

Search our weather history database for the weather conditions in past years. The results will help you decide how hot, cold, wet, or windy it might be!

Date:

Astronomy

Oct. 20, 2013 Rise Set
Actual Time 7:20 AM PDT 6:20 PM PDT
Civil Twilight 6:53 AM PDT 6:47 PM PDT
Nautical Twilight 6:22 AM PDT 7:18 PM PDT
Astronomical Twilight 5:51 AM PDT 7:48 PM PDT
Moon 7:34 PM PDT (10/20) 9:01 AM PDT (10/20)
Length of Visible Light 11h 53m
Length of Day
11h 00m
Waning Gibbous, 97% of the Moon is Illuminated
Oct 20
Waning Gibbous
Oct 26
Last Quarter
Nov 3
New
Nov 9
First Quarter
Nov 17
Full

Hourly Weather History & Observations

Time (PDT) Temp. Dew Point Humidity Pressure Visibility Wind Dir Wind Speed Gust Speed Precip Events Conditions
12:53 AM 52.0 °F 45.0 °F 77% 30.00 in 10.0 mi Calm Calm - N/A   Clear
1:53 AM 51.1 °F 45.0 °F 80% 30.00 in 10.0 mi Calm Calm - N/A   Clear
2:53 AM 48.9 °F 44.1 °F 83% 29.99 in 10.0 mi Calm Calm - N/A   Clear
3:53 AM 48.9 °F 42.1 °F 77% 29.98 in 10.0 mi Calm Calm - N/A   Clear
4:53 AM 48.0 °F 42.1 °F 80% 29.98 in 10.0 mi Calm Calm - N/A   Clear
5:53 AM 48.9 °F 41.0 °F 74% 29.98 in 10.0 mi Calm Calm - N/A   Clear
6:53 AM 46.9 °F 41.0 °F 80% 29.99 in 10.0 mi Calm Calm - N/A   Clear
7:53 AM 46.0 °F 43.0 °F 89% 30.00 in 8.0 mi Calm Calm - N/A   Clear
8:53 AM 55.9 °F 42.1 °F 60% 30.01 in 10.0 mi Calm Calm - N/A   Clear
9:53 AM 63.0 °F 42.1 °F 46% 30.01 in 10.0 mi Calm Calm - N/A   Clear
10:53 AM 69.1 °F 39.0 °F 33% 30.00 in 10.0 mi Calm Calm - N/A   Clear
11:53 AM 73.0 °F 37.9 °F 28% 29.99 in 10.0 mi WNW 4.6 mph - N/A   Clear
12:53 PM 77.0 °F 37.9 °F 24% 29.96 in 10.0 mi WNW 5.8 mph - N/A   Clear
1:53 PM 81.0 °F 37.9 °F 21% 29.93 in 10.0 mi WNW 3.5 mph - N/A   Clear
2:53 PM 82.0 °F 34.0 °F 18% 29.91 in 10.0 mi WNW 4.6 mph - N/A   Clear
3:53 PM 82.9 °F 34.0 °F 17% 29.90 in 10.0 mi Calm Calm - N/A   Clear
4:53 PM 82.9 °F 35.1 °F 18% 29.88 in 10.0 mi SSW 3.5 mph - N/A   Clear
5:53 PM 79.0 °F 39.9 °F 25% 29.88 in 10.0 mi SSW 3.5 mph - N/A   Clear
6:53 PM 66.9 °F 44.1 °F 44% 29.88 in 10.0 mi South 3.5 mph - N/A   Clear
7:53 PM 63.0 °F 45.0 °F 52% 29.89 in 10.0 mi South 3.5 mph - N/A   Clear
8:53 PM 64.0 °F 44.1 °F 48% 29.89 in 10.0 mi South 3.5 mph - N/A   Clear
9:53 PM 64.9 °F 44.1 °F 47% 29.89 in 10.0 mi SSW 4.6 mph - N/A   Clear
10:53 PM 63.0 °F 44.1 °F 50% 29.90 in 10.0 mi SSW 4.6 mph - N/A   Clear
11:53 PM 59.0 °F 45.0 °F 60% 29.90 in 10.0 mi SSE 4.6 mph - N/A   Clear